Погода в Ершовском

Россия / Челябинская область     52°29′08″N   59°08′13″E
темп.,
°C
ветер,
м/с
пор.,
м/с
влажн.,
%
обл.,
%
осадки,
мм/ч
давл.,
гПа
погр.,
м
13 мая, чт
чт1323:00+16юз34401 0.0 102847
02:00+15з33450 0.0 102828
05:00+14зсз11470 0.0 102810
08:00+18з11370 0.0 1028163
11:00+23юз22244 0.0 10281334
14:00+26ююз22180 0.0 10272134
17:00+26зюз21175 0.0 10262324
20:00+23зсз22265 0.0 102619
14 мая, пт
пт1423:00+19зсз11315 0.0 102611
02:00+17з22345 0.0 102711
05:00+16ссз11390 0.0 102711
08:00+20зсз11340 0.0 1028136
11:00+25зюз22240 0.0 10281245
14:00+28юз33210 0.0 10262530
17:00+28зюз33192 0.0 10262795
20:00+24сз33290 0.0 102536
15 мая, сб
сб1523:00+19з33380 0.0 102630
02:00+17сз22475 0.0 102612
05:00+16сз11500 0.0 102611
08:00+21сз11400 0.0 1027168
11:00+26зюз33260 0.0 10251390
14:00+28зюз33183 0.0 10242305
17:00+28з33165 0.0 10232532
20:00+25зсз22276 0.0 102318
16 мая, вс
вс1623:00+19зюз46500 0.0 102388
02:00+18зсз22500 0.0 102212
05:00+17сз22570 0.0 102311
08:00+21зсз22450 0.0 1024220
11:00+27зсз34310 0.0 10221285
14:00+29з33235 0.0 10213033
17:00+29з54195 0.0 10203439
20:00+25зсз46325 0.0 101999
17 мая, пн
пн1723:00+21з34423 0.0 102056
02:00+19ссз11511 0.0 102011
05:00+17с11555 0.0 102011
08:00+22зюз234639 0.0 1021178
11:00+27зюз33292 0.0 10191411
14:00+29з552439 0.0 10183610
17:00+29зсз56234 0.0 10173068
20:00+21зсз5951100 0.3 1018169